Year,Month,Day,Hour,Minute,Value (Times are PST for temperature in C)
2006,09,27,00,00,13.10
2006,09,27,00,01,13.00
2006,09,27,00,02,13.00
2006,09,27,00,03,13.00
2006,09,27,00,04,13.00
2006,09,27,00,05,13.10
2006,09,27,00,06,13.10
2006,09,27,00,07,13.10
2006,09,27,00,08,13.10
2006,09,27,00,09,13.10
2006,09,27,00,10,13.10
2006,09,27,00,11,13.10
2006,09,27,00,12,13.10
2006,09,27,00,13,13.00
2006,09,27,00,14,13.00
2006,09,27,00,15,13.00
2006,09,27,00,16,13.00
2006,09,27,00,17,13.00
2006,09,27,00,18,13.00
2006,09,27,00,19,13.00
2006,09,27,00,20,12.90
2006,09,27,00,21,12.90
2006,09,27,00,22,12.90
2006,09,27,00,23,12.90
2006,09,27,00,24,12.90
2006,09,27,00,25,12.90
2006,09,27,00,26,12.90
2006,09,27,00,27,12.90
2006,09,27,00,28,12.90
2006,09,27,00,29,12.90
2006,09,27,00,30,12.90
2006,09,27,00,31,12.90
2006,09,27,00,32,12.90
2006,09,27,00,33,12.90
2006,09,27,00,34,12.80
2006,09,27,00,35,12.80
2006,09,27,00,36,12.80
2006,09,27,00,37,12.80
2006,09,27,00,38,12.80
2006,09,27,00,39,12.80
2006,09,27,00,40,12.80
2006,09,27,00,41,12.80
2006,09,27,00,42,12.80
2006,09,27,00,43,12.80
2006,09,27,00,44,12.80
2006,09,27,00,45,12.80
2006,09,27,00,46,12.80
2006,09,27,00,47,12.80
2006,09,27,00,48,12.80
2006,09,27,00,49,12.80
2006,09,27,00,50,12.80
2006,09,27,00,51,12.80
2006,09,27,00,52,12.80
2006,09,27,00,53,12.80
2006,09,27,00,54,12.80
2006,09,27,00,55,12.70
2006,09,27,00,56,12.70
2006,09,27,00,57,12.70
2006,09,27,00,58,12.70
2006,09,27,00,59,12.60
2006,09,27,01,00,12.60
2006,09,27,01,01,12.60
2006,09,27,01,02,12.60
2006,09,27,01,03,12.60
2006,09,27,01,04,12.60
2006,09,27,01,05,12.60
2006,09,27,01,06,12.60
2006,09,27,01,07,12.60
2006,09,27,01,08,12.60
2006,09,27,01,09,12.60
2006,09,27,01,10,12.60
2006,09,27,01,11,12.60
2006,09,27,01,12,12.50
2006,09,27,01,13,12.50
2006,09,27,01,14,12.50
2006,09,27,01,15,12.50
2006,09,27,01,16,12.50
2006,09,27,01,17,12.50
2006,09,27,01,18,12.50
2006,09,27,01,19,12.50
2006,09,27,01,20,12.50
2006,09,27,01,21,12.50
2006,09,27,01,22,12.50
2006,09,27,01,23,12.50
2006,09,27,01,24,12.40
2006,09,27,01,25,12.50
2006,09,27,01,26,12.50
2006,09,27,01,27,12.50
2006,09,27,01,28,12.50
2006,09,27,01,29,12.50
2006,09,27,01,30,12.60
2006,09,27,01,31,12.60
2006,09,27,01,32,12.60
2006,09,27,01,33,12.60
2006,09,27,01,34,12.60
2006,09,27,01,35,12.60
2006,09,27,01,36,12.60
2006,09,27,01,37,12.70
2006,09,27,01,38,12.70
2006,09,27,01,39,12.70
2006,09,27,01,40,12.70
2006,09,27,01,41,12.70
2006,09,27,01,42,12.70
2006,09,27,01,43,12.70
2006,09,27,01,44,12.70
2006,09,27,01,45,12.70
2006,09,27,01,46,12.70
2006,09,27,01,47,12.60
2006,09,27,01,48,12.60
2006,09,27,01,49,12.60
2006,09,27,01,50,12.60
2006,09,27,01,51,12.60
2006,09,27,01,52,12.60
2006,09,27,01,53,12.60
2006,09,27,01,54,12.50
2006,09,27,01,55,12.50
2006,09,27,01,56,12.50
2006,09,27,01,57,12.50
2006,09,27,01,58,12.50
2006,09,27,01,59,12.50
2006,09,27,02,00,12.50
2006,09,27,02,01,12.50
2006,09,27,02,02,12.50
2006,09,27,02,03,12.50
2006,09,27,02,04,12.50
2006,09,27,02,05,12.50
2006,09,27,02,06,12.50
2006,09,27,02,07,12.50
2006,09,27,02,08,12.50
2006,09,27,02,09,12.50
2006,09,27,02,10,12.50
2006,09,27,02,11,12.50
2006,09,27,02,12,12.50
2006,09,27,02,13,12.50
2006,09,27,02,14,12.40
2006,09,27,02,15,12.40
2006,09,27,02,16,12.40
2006,09,27,02,17,12.40
2006,09,27,02,18,12.40
2006,09,27,02,19,12.30
2006,09,27,02,20,12.30
2006,09,27,02,21,12.30
2006,09,27,02,22,12.30
2006,09,27,02,23,12.30
2006,09,27,02,24,12.30
2006,09,27,02,25,12.30
2006,09,27,02,26,12.30
2006,09,27,02,27,12.30
2006,09,27,02,28,12.30
2006,09,27,02,29,12.30
2006,09,27,02,30,12.30
2006,09,27,02,31,12.30
2006,09,27,02,32,12.30
2006,09,27,02,33,12.30
2006,09,27,02,34,12.30
2006,09,27,02,35,12.30
2006,09,27,02,36,12.30
2006,09,27,02,37,12.30
2006,09,27,02,38,12.20
2006,09,27,02,39,12.20
2006,09,27,02,40,12.20
2006,09,27,02,41,12.20
2006,09,27,02,42,12.20
2006,09,27,02,43,12.20
2006,09,27,02,44,12.20
2006,09,27,02,45,12.20
2006,09,27,02,46,12.20
2006,09,27,02,47,12.20
2006,09,27,02,48,12.10
2006,09,27,02,49,12.10
2006,09,27,02,50,12.10
2006,09,27,02,51,12.20
2006,09,27,02,52,12.20
2006,09,27,02,53,12.20
2006,09,27,02,54,12.20
2006,09,27,02,55,12.20
2006,09,27,02,56,12.20
2006,09,27,02,57,12.20
2006,09,27,02,58,12.20
2006,09,27,02,59,12.30
2006,09,27,03,00,12.30
2006,09,27,03,01,12.30
2006,09,27,03,02,12.30
2006,09,27,03,03,12.20
2006,09,27,03,04,12.20
2006,09,27,03,05,12.20
2006,09,27,03,06,12.20
2006,09,27,03,07,12.20
2006,09,27,03,08,12.20
2006,09,27,03,09,12.20
2006,09,27,03,10,12.10
2006,09,27,03,11,12.10
2006,09,27,03,12,12.10
2006,09,27,03,13,12.10
2006,09,27,03,14,12.10
2006,09,27,03,15,12.10
2006,09,27,03,16,12.00
2006,09,27,03,17,12.00
2006,09,27,03,18,12.00
2006,09,27,03,19,12.00
2006,09,27,03,20,12.00
2006,09,27,03,21,12.00
2006,09,27,03,22,11.90
2006,09,27,03,23,11.90
2006,09,27,03,24,11.90
2006,09,27,03,25,11.90
2006,09,27,03,26,11.90
2006,09,27,03,27,11.90
2006,09,27,03,28,11.90
2006,09,27,03,29,11.90
2006,09,27,03,30,11.90
2006,09,27,03,31,11.90
2006,09,27,03,32,11.90
2006,09,27,03,33,11.90
2006,09,27,03,34,11.90
2006,09,27,03,35,11.90
2006,09,27,03,36,11.90
2006,09,27,03,37,11.90
2006,09,27,03,38,11.80
2006,09,27,03,39,11.80
2006,09,27,03,40,11.80
2006,09,27,03,41,11.80
2006,09,27,03,42,11.80
2006,09,27,03,43,11.80
2006,09,27,03,44,11.80
2006,09,27,03,45,11.90
2006,09,27,03,46,11.90
2006,09,27,03,47,11.90
2006,09,27,03,48,11.90
2006,09,27,03,49,11.90
2006,09,27,03,50,11.90
2006,09,27,03,51,11.80
2006,09,27,03,52,11.80
2006,09,27,03,53,11.80
2006,09,27,03,54,11.80
2006,09,27,03,55,11.80
2006,09,27,03,56,11.80
2006,09,27,03,57,11.80
2006,09,27,03,58,11.80
2006,09,27,03,59,11.80
2006,09,27,04,00,11.80
2006,09,27,04,01,11.70
2006,09,27,04,02,11.70
2006,09,27,04,03,11.70
2006,09,27,04,04,11.70
2006,09,27,04,05,11.60
2006,09,27,04,06,11.60
2006,09,27,04,07,11.60
2006,09,27,04,08,11.60
2006,09,27,04,09,11.60
2006,09,27,04,10,11.60
2006,09,27,04,11,11.60
2006,09,27,04,12,11.60
2006,09,27,04,13,11.60
2006,09,27,04,14,11.60
2006,09,27,04,15,11.60
2006,09,27,04,16,11.60
2006,09,27,04,17,11.60
2006,09,27,04,18,11.60
2006,09,27,04,19,11.60
2006,09,27,04,20,11.60
2006,09,27,04,21,11.60
2006,09,27,04,22,11.60
2006,09,27,04,23,11.60
2006,09,27,04,24,11.60
2006,09,27,04,25,11.60
2006,09,27,04,26,11.60
2006,09,27,04,27,11.60
2006,09,27,04,28,11.60
2006,09,27,04,29,11.60
2006,09,27,04,30,11.60
2006,09,27,04,31,11.60
2006,09,27,04,32,11.60
2006,09,27,04,33,11.60
2006,09,27,04,34,11.60
2006,09,27,04,35,11.60
2006,09,27,04,36,11.60
2006,09,27,04,37,11.60
2006,09,27,04,38,11.60
2006,09,27,04,39,11.50
2006,09,27,04,40,11.40
2006,09,27,04,41,11.40
2006,09,27,04,42,11.40
2006,09,27,04,43,11.40
2006,09,27,04,44,11.40
2006,09,27,04,45,11.40
2006,09,27,04,46,11.40
2006,09,27,04,47,11.40
2006,09,27,04,48,11.40
2006,09,27,04,49,11.30
2006,09,27,04,50,11.30
2006,09,27,04,51,11.30
2006,09,27,04,52,11.30
2006,09,27,04,53,11.30
2006,09,27,04,54,11.30
2006,09,27,04,55,11.20
2006,09,27,04,56,11.20
2006,09,27,04,57,11.20
2006,09,27,04,58,11.20
2006,09,27,04,59,11.20
2006,09,27,05,00,11.20
2006,09,27,05,01,11.20
2006,09,27,05,02,11.20
2006,09,27,05,03,11.20
2006,09,27,05,04,11.20
2006,09,27,05,05,11.20
2006,09,27,05,06,11.20
2006,09,27,05,07,11.20
2006,09,27,05,08,11.20
2006,09,27,05,09,11.20
2006,09,27,05,10,11.20
2006,09,27,05,11,11.20
2006,09,27,05,12,11.20
2006,09,27,05,13,11.20
2006,09,27,05,14,11.20
2006,09,27,05,15,11.20
2006,09,27,05,16,11.20
2006,09,27,05,17,11.20
2006,09,27,05,18,11.20
2006,09,27,05,19,11.20
2006,09,27,05,20,11.20
2006,09,27,05,21,11.20
2006,09,27,05,22,11.20
2006,09,27,05,23,11.30
2006,09,27,05,24,11.30
2006,09,27,05,25,11.20
2006,09,27,05,26,11.30
2006,09,27,05,27,11.30
2006,09,27,05,28,11.30
2006,09,27,05,29,11.30
2006,09,27,05,30,11.30
2006,09,27,05,31,11.40
2006,09,27,05,32,11.40
2006,09,27,05,33,11.40
2006,09,27,05,34,11.40
2006,09,27,05,35,11.40
2006,09,27,05,36,11.40
2006,09,27,05,37,11.40
2006,09,27,05,38,11.30
2006,09,27,05,39,11.30
2006,09,27,05,40,11.30
2006,09,27,05,41,11.40
2006,09,27,05,42,11.40
2006,09,27,05,43,11.40
2006,09,27,05,44,11.40
2006,09,27,05,45,11.30
2006,09,27,05,46,11.30
2006,09,27,05,47,11.30
2006,09,27,05,48,11.40
2006,09,27,05,49,11.40
2006,09,27,05,50,11.40
2006,09,27,05,51,11.40
2006,09,27,05,52,11.40
2006,09,27,05,53,11.40
2006,09,27,05,54,11.40
2006,09,27,05,55,11.40
2006,09,27,05,56,11.40
2006,09,27,05,57,11.40
2006,09,27,05,58,11.30
2006,09,27,05,59,11.30
2006,09,27,06,00,11.30
2006,09,27,06,01,11.30
2006,09,27,06,02,11.30
2006,09,27,06,03,11.30
2006,09,27,06,04,11.30
2006,09,27,06,05,11.30
2006,09,27,06,06,11.30
2006,09,27,06,07,11.30
2006,09,27,06,08,11.30
2006,09,27,06,09,11.30
2006,09,27,06,10,11.30
2006,09,27,06,11,11.30
2006,09,27,06,12,11.30
2006,09,27,06,13,11.20
2006,09,27,06,14,11.20
2006,09,27,06,15,11.20
2006,09,27,06,16,11.20
2006,09,27,06,17,11.20
2006,09,27,06,18,11.20
2006,09,27,06,19,11.10
2006,09,27,06,20,11.10
2006,09,27,06,21,11.10
2006,09,27,06,22,11.10
2006,09,27,06,23,11.10
2006,09,27,06,24,11.10
2006,09,27,06,25,11.10
2006,09,27,06,26,11.10
2006,09,27,06,27,11.10
2006,09,27,06,28,11.10
2006,09,27,06,29,11.00
2006,09,27,06,30,10.90
2006,09,27,06,31,10.90
2006,09,27,06,32,10.90
2006,09,27,06,33,10.90
2006,09,27,06,34,10.90
2006,09,27,06,35,10.90
2006,09,27,06,36,10.90
2006,09,27,06,37,10.90
2006,09,27,06,38,10.90
2006,09,27,06,39,10.90
2006,09,27,06,40,10.90
2006,09,27,06,41,10.90
2006,09,27,06,42,10.90
2006,09,27,06,43,10.90
2006,09,27,06,44,10.80
2006,09,27,06,45,10.80
2006,09,27,06,46,10.80
2006,09,27,06,47,10.80
2006,09,27,06,48,10.80
2006,09,27,06,49,10.80
2006,09,27,06,50,10.80
2006,09,27,06,51,10.80
2006,09,27,06,52,10.80
2006,09,27,06,53,10.80
2006,09,27,06,54,10.80
2006,09,27,06,55,10.80
2006,09,27,06,56,10.70
2006,09,27,06,57,10.70
2006,09,27,06,58,10.70
2006,09,27,06,59,10.70
2006,09,27,07,00,10.70
2006,09,27,07,01,10.70
2006,09,27,07,02,10.70
2006,09,27,07,03,10.70
2006,09,27,07,04,10.70
2006,09,27,07,05,10.70
2006,09,27,07,06,10.70
2006,09,27,07,07,10.70
2006,09,27,07,08,10.70
2006,09,27,07,09,10.80
2006,09,27,07,10,10.80
2006,09,27,07,11,10.80
2006,09,27,07,12,10.80
2006,09,27,07,13,10.90
2006,09,27,07,14,10.90
2006,09,27,07,15,10.90
2006,09,27,07,16,10.90
2006,09,27,07,17,10.90
2006,09,27,07,18,10.90
2006,09,27,07,19,10.90
2006,09,27,07,20,10.90
2006,09,27,07,21,10.90
2006,09,27,07,22,10.90
2006,09,27,07,23,10.90
2006,09,27,07,24,10.90
2006,09,27,07,25,10.90
2006,09,27,07,26,10.90
2006,09,27,07,27,10.90
2006,09,27,07,28,10.90
2006,09,27,07,29,10.90
2006,09,27,07,30,10.90
2006,09,27,07,31,10.90
2006,09,27,07,32,10.90
2006,09,27,07,33,10.90
2006,09,27,07,34,10.90
2006,09,27,07,35,10.90
2006,09,27,07,36,10.90
2006,09,27,07,37,10.90
2006,09,27,07,38,10.90
2006,09,27,07,39,10.90
2006,09,27,07,40,10.90
2006,09,27,07,41,10.90
2006,09,27,07,42,10.90
2006,09,27,07,43,11.00
2006,09,27,07,44,11.10
2006,09,27,07,45,11.10
2006,09,27,07,46,11.10
2006,09,27,07,47,11.10
2006,09,27,07,48,11.10
2006,09,27,07,49,11.20
2006,09,27,07,50,11.20
2006,09,27,07,51,11.30
2006,09,27,07,52,11.30
2006,09,27,07,53,11.40
2006,09,27,07,54,11.40
2006,09,27,07,55,11.40
2006,09,27,07,56,11.40
2006,09,27,07,57,11.50
2006,09,27,07,58,11.60
2006,09,27,07,59,11.60
2006,09,27,08,00,11.60
2006,09,27,08,01,11.60
2006,09,27,08,02,11.60
2006,09,27,08,03,11.60
2006,09,27,08,04,11.70
2006,09,27,08,05,11.70
2006,09,27,08,06,11.80
2006,09,27,08,07,11.80
2006,09,27,08,08,11.80
2006,09,27,08,09,11.90
2006,09,27,08,10,11.90
2006,09,27,08,11,12.00
2006,09,27,08,12,12.10
2006,09,27,08,13,12.10
2006,09,27,08,14,12.20
2006,09,27,08,15,12.20
2006,09,27,08,16,12.20
2006,09,27,08,17,12.30
2006,09,27,08,18,12.40
2006,09,27,08,19,12.50
2006,09,27,08,20,12.50
2006,09,27,08,21,12.50
2006,09,27,08,22,12.60
2006,09,27,08,23,12.60
2006,09,27,08,24,12.70
2006,09,27,08,25,12.80
2006,09,27,08,26,12.90
2006,09,27,08,27,12.90
2006,09,27,08,28,13.00
2006,09,27,08,29,13.10
2006,09,27,08,30,13.10
2006,09,27,08,31,13.20
2006,09,27,08,32,13.20
2006,09,27,08,33,13.30
2006,09,27,08,34,13.30
2006,09,27,08,35,13.30
2006,09,27,08,36,13.30
2006,09,27,08,37,13.40
2006,09,27,08,38,13.40
2006,09,27,08,39,13.50
2006,09,27,08,40,13.60
2006,09,27,08,41,13.60
2006,09,27,08,42,13.70
2006,09,27,08,43,13.70
2006,09,27,08,44,13.70
2006,09,27,08,45,13.80
2006,09,27,08,46,13.80
2006,09,27,08,47,13.90
2006,09,27,08,48,14.00
2006,09,27,08,49,14.10
2006,09,27,08,50,14.20
2006,09,27,08,51,14.20
2006,09,27,08,52,14.20
2006,09,27,08,53,14.30
2006,09,27,08,54,14.40
2006,09,27,08,55,14.50
2006,09,27,08,56,14.60
2006,09,27,08,57,14.60
2006,09,27,08,58,14.70
2006,09,27,08,59,14.80
2006,09,27,09,00,14.90
2006,09,27,09,01,15.00
2006,09,27,09,02,15.00
2006,09,27,09,03,15.10
2006,09,27,09,04,15.20
2006,09,27,09,05,15.30
2006,09,27,09,06,15.30
2006,09,27,09,07,15.40
2006,09,27,09,08,15.50
2006,09,27,09,09,15.60
2006,09,27,09,10,15.60
2006,09,27,09,11,15.70
2006,09,27,09,12,15.80
2006,09,27,09,13,15.80
2006,09,27,09,14,15.90
2006,09,27,09,15,15.90
2006,09,27,09,16,16.10
2006,09,27,09,17,16.10
2006,09,27,09,18,16.20
2006,09,27,09,19,16.30
2006,09,27,09,20,16.30
2006,09,27,09,21,16.40
2006,09,27,09,22,16.50
2006,09,27,09,23,16.60
2006,09,27,09,24,16.60
2006,09,27,09,25,16.70
2006,09,27,09,26,16.80
2006,09,27,09,27,16.80
2006,09,27,09,28,16.90
2006,09,27,09,29,17.00
2006,09,27,09,30,17.00
2006,09,27,09,31,17.10
2006,09,27,09,32,17.20
2006,09,27,09,33,17.30
2006,09,27,09,34,17.30
2006,09,27,09,35,17.30
2006,09,27,09,36,17.40
2006,09,27,09,37,17.50
2006,09,27,09,38,17.50
2006,09,27,09,39,17.60
2006,09,27,09,40,17.70
2006,09,27,09,41,17.70
2006,09,27,09,42,17.80
2006,09,27,09,43,17.90
2006,09,27,09,44,17.90
2006,09,27,09,45,17.90
2006,09,27,09,46,18.10
2006,09,27,09,47,18.10
2006,09,27,09,48,18.10
2006,09,27,09,49,18.20
2006,09,27,09,50,18.40
2006,09,27,09,51,18.50
2006,09,27,09,52,18.70
2006,09,27,09,53,18.90
2006,09,27,09,54,19.00
2006,09,27,09,55,19.10
2006,09,27,09,56,19.20
2006,09,27,09,57,19.30
2006,09,27,09,58,19.40
2006,09,27,09,59,19.50
2006,09,27,10,00,19.60
2006,09,27,10,01,19.70
2006,09,27,10,02,19.80
2006,09,27,10,03,19.80
2006,09,27,10,04,19.90
2006,09,27,10,05,19.90
2006,09,27,10,06,19.90
2006,09,27,10,07,19.90
2006,09,27,10,08,19.90
2006,09,27,10,09,19.90
2006,09,27,10,10,19.90
2006,09,27,10,11,19.90
2006,09,27,10,12,19.80
2006,09,27,10,13,19.70
2006,09,27,10,14,19.60
2006,09,27,10,15,19.50
2006,09,27,10,16,19.50
2006,09,27,10,17,19.40
2006,09,27,10,18,19.40
2006,09,27,10,19,19.40
2006,09,27,10,20,19.40
2006,09,27,10,21,19.40
2006,09,27,10,22,19.40
2006,09,27,10,23,19.50
2006,09,27,10,24,19.50
2006,09,27,10,25,19.50
2006,09,27,10,26,19.50
2006,09,27,10,27,19.50
2006,09,27,10,28,19.60
2006,09,27,10,29,19.60
2006,09,27,10,30,19.70
2006,09,27,10,31,19.80
2006,09,27,10,32,19.90
2006,09,27,10,33,19.90
2006,09,27,10,34,20.10
2006,09,27,10,35,20.10
2006,09,27,10,36,20.20
2006,09,27,10,37,20.20
2006,09,27,10,38,20.20
2006,09,27,10,39,20.30
2006,09,27,10,40,20.40
2006,09,27,10,41,20.50
2006,09,27,10,42,20.50
2006,09,27,10,43,20.50
2006,09,27,10,44,20.70
2006,09,27,10,45,20.70
2006,09,27,10,46,20.70
2006,09,27,10,47,20.70
2006,09,27,10,48,20.70
2006,09,27,10,49,20.70
2006,09,27,10,50,20.70
2006,09,27,10,51,20.70
2006,09,27,10,52,20.70
2006,09,27,10,53,20.70
2006,09,27,10,54,20.70
2006,09,27,10,55,20.70
2006,09,27,10,56,20.70
2006,09,27,10,57,20.80
2006,09,27,10,58,20.80
2006,09,27,10,59,20.90
2006,09,27,11,00,20.90
2006,09,27,11,01,20.90
2006,09,27,11,02,20.90
2006,09,27,11,03,21.00
2006,09,27,11,04,21.00
2006,09,27,11,05,21.00
2006,09,27,11,06,21.00
2006,09,27,11,07,21.00
2006,09,27,11,08,21.10
2006,09,27,11,09,21.10
2006,09,27,11,10,21.10
2006,09,27,11,11,21.20
2006,09,27,11,12,21.30
2006,09,27,11,13,21.30
2006,09,27,11,14,21.30
2006,09,27,11,15,21.30
2006,09,27,11,16,21.40
2006,09,27,11,17,21.40
2006,09,27,11,18,21.40
2006,09,27,11,19,21.40
2006,09,27,11,20,21.40
2006,09,27,11,21,21.40
2006,09,27,11,22,21.50
2006,09,27,11,23,21.60
2006,09,27,11,24,21.60
2006,09,27,11,25,21.60
2006,09,27,11,26,21.60
2006,09,27,11,27,21.60
2006,09,27,11,28,21.70
2006,09,27,11,29,21.70
2006,09,27,11,30,21.80
2006,09,27,11,31,21.80
2006,09,27,11,32,21.90
2006,09,27,11,33,22.00
2006,09,27,11,34,22.10
2006,09,27,11,35,22.10
2006,09,27,11,36,22.10
2006,09,27,11,37,22.10
2006,09,27,11,38,22.20
2006,09,27,11,39,22.30
2006,09,27,11,40,22.30
2006,09,27,11,41,22.40
2006,09,27,11,42,22.40
2006,09,27,11,43,22.40
2006,09,27,11,44,22.40
2006,09,27,11,45,22.50
2006,09,27,11,46,22.50
2006,09,27,11,47,22.50
2006,09,27,11,48,22.40
2006,09,27,11,49,22.50
2006,09,27,11,50,22.60
2006,09,27,11,51,22.70
2006,09,27,11,52,22.80
2006,09,27,11,53,22.90
2006,09,27,11,54,22.90
2006,09,27,11,55,22.90
2006,09,27,11,56,23.10
2006,09,27,11,57,23.10
2006,09,27,11,58,23.10
2006,09,27,11,59,23.10
2006,09,27,12,00,23.10
2006,09,27,12,01,23.10
2006,09,27,12,02,23.20
2006,09,27,12,03,23.30
2006,09,27,12,04,23.30
2006,09,27,12,05,23.30
2006,09,27,12,06,23.30
2006,09,27,12,07,23.30
2006,09,27,12,08,23.30
2006,09,27,12,09,23.30
2006,09,27,12,10,23.30
2006,09,27,12,11,23.30
2006,09,27,12,12,23.30
2006,09,27,12,13,23.30
2006,09,27,12,14,23.30
2006,09,27,12,15,23.30
2006,09,27,12,16,23.30
2006,09,27,12,17,23.30
2006,09,27,12,18,23.30
2006,09,27,12,19,23.30
2006,09,27,12,20,23.30
2006,09,27,12,21,23.30
2006,09,27,12,22,23.30
2006,09,27,12,23,23.30
2006,09,27,12,24,23.20
2006,09,27,12,25,23.20
2006,09,27,12,26,23.20
2006,09,27,12,27,23.10
2006,09,27,12,28,23.10
2006,09,27,12,29,23.10
2006,09,27,12,30,23.10
2006,09,27,12,31,23.10
2006,09,27,12,32,23.20
2006,09,27,12,33,23.30
2006,09,27,12,34,23.30
2006,09,27,12,35,23.30
2006,09,27,12,36,23.30
2006,09,27,12,37,23.30
2006,09,27,12,38,23.30
2006,09,27,12,39,23.40
2006,09,27,12,40,23.50
2006,09,27,12,41,23.60
2006,09,27,12,42,23.50
2006,09,27,12,43,23.40
2006,09,27,12,44,23.50
2006,09,27,12,45,23.40
2006,09,27,12,46,23.40
2006,09,27,12,47,23.30
2006,09,27,12,48,23.30
2006,09,27,12,49,23.30
2006,09,27,12,50,23.40
2006,09,27,12,51,23.50
2006,09,27,12,52,23.60
2006,09,27,12,53,23.70
2006,09,27,12,54,23.70
2006,09,27,12,55,23.70
2006,09,27,12,56,23.80
2006,09,27,12,57,23.80
2006,09,27,12,58,23.70
2006,09,27,12,59,23.60
2006,09,27,13,00,23.60
2006,09,27,13,01,23.50
2006,09,27,13,02,23.40
2006,09,27,13,03,23.40
2006,09,27,13,04,23.40
2006,09,27,13,05,23.40
2006,09,27,13,06,23.40
2006,09,27,13,07,23.50
2006,09,27,13,08,23.50
2006,09,27,13,09,23.50
2006,09,27,13,10,23.60
2006,09,27,13,11,23.60
2006,09,27,13,12,23.70
2006,09,27,13,13,23.70
2006,09,27,13,14,23.60
2006,09,27,13,15,23.40
2006,09,27,13,16,23.30
2006,09,27,13,17,23.20
2006,09,27,13,18,23.10
2006,09,27,13,19,23.10
2006,09,27,13,20,23.10
2006,09,27,13,21,23.20
2006,09,27,13,22,23.20
2006,09,27,13,23,23.20
2006,09,27,13,24,23.30
2006,09,27,13,25,23.30
2006,09,27,13,26,23.30
2006,09,27,13,27,23.30
2006,09,27,13,28,23.30
2006,09,27,13,29,23.30
2006,09,27,13,30,23.30
2006,09,27,13,31,23.30
2006,09,27,13,32,23.30
2006,09,27,13,33,23.30
2006,09,27,13,34,23.30
2006,09,27,13,35,23.40
2006,09,27,13,36,23.40
2006,09,27,13,37,23.30
2006,09,27,13,38,23.30
2006,09,27,13,39,23.30
2006,09,27,13,40,23.30
2006,09,27,13,41,23.30
2006,09,27,13,42,23.30
2006,09,27,13,43,23.30
2006,09,27,13,44,23.30
2006,09,27,13,45,23.30
2006,09,27,13,46,23.30
2006,09,27,13,47,23.40
2006,09,27,13,48,23.40
2006,09,27,13,49,23.30
2006,09,27,13,50,23.30
2006,09,27,13,51,23.30
2006,09,27,13,52,23.30
2006,09,27,13,53,23.40
2006,09,27,13,54,23.50
2006,09,27,13,55,23.60
2006,09,27,13,56,23.60
2006,09,27,13,57,23.70
2006,09,27,13,58,23.70
2006,09,27,13,59,23.70
2006,09,27,14,00,23.70
2006,09,27,14,01,23.70
2006,09,27,14,02,23.70
2006,09,27,14,03,23.70
2006,09,27,14,04,23.70
2006,09,27,14,05,23.80
2006,09,27,14,06,23.80
2006,09,27,14,07,23.80
2006,09,27,14,08,23.80
2006,09,27,14,09,23.70
2006,09,27,14,10,23.60
2006,09,27,14,11,23.50
2006,09,27,14,12,23.40
2006,09,27,14,13,23.40
2006,09,27,14,14,23.40
2006,09,27,14,15,23.40
2006,09,27,14,16,23.40
2006,09,27,14,17,23.40
2006,09,27,14,18,23.40
2006,09,27,14,19,23.40
2006,09,27,14,20,23.30
2006,09,27,14,21,23.30
2006,09,27,14,22,23.30
2006,09,27,14,23,23.30
2006,09,27,14,24,23.30
2006,09,27,14,25,23.30
2006,09,27,14,26,23.40
2006,09,27,14,27,23.60
2006,09,27,14,28,23.70
2006,09,27,14,29,23.70
2006,09,27,14,30,23.70
2006,09,27,14,31,23.70
2006,09,27,14,32,23.70
2006,09,27,14,33,23.70
2006,09,27,14,34,23.70
2006,09,27,14,35,23.70
2006,09,27,14,36,23.70
2006,09,27,14,37,23.70
2006,09,27,14,38,23.60
2006,09,27,14,39,23.60
2006,09,27,14,40,23.60
2006,09,27,14,41,23.30
2006,09,27,14,42,23.30
2006,09,27,14,43,23.30
2006,09,27,14,44,23.30
2006,09,27,14,45,23.30
2006,09,27,14,46,23.40
2006,09,27,14,47,23.40
2006,09,27,14,48,23.40
2006,09,27,14,49,23.40
2006,09,27,14,50,23.40
2006,09,27,14,51,23.40
2006,09,27,14,52,23.40
2006,09,27,14,53,23.30
2006,09,27,14,54,23.30
2006,09,27,14,55,23.30
2006,09,27,14,56,23.30
2006,09,27,14,57,23.30
2006,09,27,14,58,23.30
2006,09,27,14,59,23.30
2006,09,27,15,00,23.30
2006,09,27,15,01,23.30
2006,09,27,15,02,23.30
2006,09,27,15,03,23.30
2006,09,27,15,04,23.30
2006,09,27,15,05,23.30
2006,09,27,15,06,23.30
2006,09,27,15,07,23.30
2006,09,27,15,08,23.30
2006,09,27,15,09,23.20
2006,09,27,15,10,23.10
2006,09,27,15,11,23.10
2006,09,27,15,12,23.20
2006,09,27,15,13,23.20
2006,09,27,15,14,23.40
2006,09,27,15,15,23.50
2006,09,27,15,16,23.60
2006,09,27,15,17,23.70
2006,09,27,15,18,23.70
2006,09,27,15,19,23.70
2006,09,27,15,20,23.70
2006,09,27,15,21,23.70
2006,09,27,15,22,23.80
2006,09,27,15,23,23.90
2006,09,27,15,24,23.90
2006,09,27,15,25,23.90
2006,09,27,15,26,23.90
2006,09,27,15,27,23.90
2006,09,27,15,28,23.80
2006,09,27,15,29,23.80
2006,09,27,15,30,23.70
2006,09,27,15,31,23.70
2006,09,27,15,32,23.70
2006,09,27,15,33,23.60
2006,09,27,15,34,23.60
2006,09,27,15,35,23.50
2006,09,27,15,36,23.40
2006,09,27,15,37,23.30
2006,09,27,15,38,23.30
2006,09,27,15,39,23.40
2006,09,27,15,40,23.40
2006,09,27,15,41,23.40
2006,09,27,15,42,23.40
2006,09,27,15,43,23.50
2006,09,27,15,44,23.60
2006,09,27,15,45,23.60
2006,09,27,15,46,23.60
2006,09,27,15,47,23.70
2006,09,27,15,48,23.70
2006,09,27,15,49,23.70
2006,09,27,15,50,23.80
2006,09,27,15,51,23.80
2006,09,27,15,52,23.70
2006,09,27,15,53,23.80
2006,09,27,15,54,23.80
2006,09,27,15,55,23.90
2006,09,27,15,56,23.80
2006,09,27,15,57,23.80
2006,09,27,15,58,23.80
2006,09,27,15,59,23.80
2006,09,27,16,00,23.70
2006,09,27,16,01,23.80
2006,09,27,16,02,23.80
2006,09,27,16,03,23.80
2006,09,27,16,04,23.80
2006,09,27,16,05,23.80
2006,09,27,16,06,23.80
2006,09,27,16,07,23.80
2006,09,27,16,08,23.70
2006,09,27,16,09,23.70
2006,09,27,16,10,23.70
2006,09,27,16,11,23.60
2006,09,27,16,12,23.60
2006,09,27,16,13,23.60
2006,09,27,16,14,23.60
2006,09,27,16,15,23.60
2006,09,27,16,16,23.60
2006,09,27,16,17,23.60
2006,09,27,16,18,23.60
2006,09,27,16,19,23.70
2006,09,27,16,20,23.70
2006,09,27,16,21,23.70
2006,09,27,16,22,23.70
2006,09,27,16,23,23.70
2006,09,27,16,24,23.80
2006,09,27,16,25,23.70
2006,09,27,16,26,23.70
2006,09,27,16,27,23.70
2006,09,27,16,28,23.70
2006,09,27,16,29,23.60
2006,09,27,16,30,23.70
2006,09,27,16,31,23.70
2006,09,27,16,32,23.70
2006,09,27,16,33,23.70
2006,09,27,16,34,23.70
2006,09,27,16,35,23.80
2006,09,27,16,36,23.80
2006,09,27,16,37,23.80
2006,09,27,16,38,23.80
2006,09,27,16,39,23.70
2006,09,27,16,40,23.70
2006,09,27,16,41,23.70
2006,09,27,16,42,23.70
2006,09,27,16,43,23.70
2006,09,27,16,44,23.70
2006,09,27,16,45,23.70
2006,09,27,16,46,23.70
2006,09,27,16,47,23.70
2006,09,27,16,48,23.70
2006,09,27,16,49,23.70
2006,09,27,16,50,23.70
2006,09,27,16,51,23.70
2006,09,27,16,52,23.70
2006,09,27,16,53,23.70
2006,09,27,16,54,23.70
2006,09,27,16,55,23.70
2006,09,27,16,56,23.70
2006,09,27,16,57,23.70
2006,09,27,16,58,23.70
2006,09,27,16,59,23.70
2006,09,27,17,00,23.70
2006,09,27,17,01,23.70
2006,09,27,17,02,23.70
2006,09,27,17,03,23.70
2006,09,27,17,04,23.70
2006,09,27,17,05,23.70
2006,09,27,17,06,23.70
2006,09,27,17,07,23.70
2006,09,27,17,08,23.70
2006,09,27,17,09,23.70
2006,09,27,17,10,23.70
2006,09,27,17,11,23.70
2006,09,27,17,12,23.60
2006,09,27,17,13,23.70
2006,09,27,17,14,23.70
2006,09,27,17,15,23.70
2006,09,27,17,16,23.70
2006,09,27,17,17,23.70
2006,09,27,17,18,23.70
2006,09,27,17,19,23.70